Kansas City International Airport Airport (MCI)

 

Airport Diagram
Current Weather/Forecast (VFR Conditions)
METAR KMCI 241553Z 24006KT 9SM CLR 23/15 A2999 RMK AO2 SLP151 T02280150 $
TAF KMCI 241120Z 2412/2512 00000KT 1/4SM FG SKC FM241300 28011KT P6SM SKC

All Charts
General
Chart Name Download
AIRPORT DIAGRAM
TAKEOFF MINIMUMS
HOT SPOT

Departures
Chart Name Download
CHIEF SEVEN
LAKES THREE
RACER SEVEN
ROYAL NINE
TIFTO SIX
WILDCAT FIVE

Arrivals
Chart Name Download
BRAYMER SEVEN
BRAYMER SEVEN, CONT.1
JHAWK SIX
JHAWK SIX, CONT.1
JSONN TWO (RNAV)
JSONN TWO (RNAV), CONT.1
JSONN TWO (RNAV), CONT.2
MHOMS ONE (RNAV)
MHOMS ONE (RNAV), CONT.1
MHOMS ONE (RNAV), CONT.2
RUDDH ONE (RNAV)
RUDDH ONE (RNAV), CONT.1
RUDDH ONE (RNAV), CONT.2
TYGER SIX
TYGER SIX, CONT.1
WUTNG ONE (RNAV)
WUTNG ONE (RNAV), CONT.1
WUTNG ONE (RNAV), CONT.2

Approaches
Chart Name Download
ILS OR LOC RWY 01L
ILS OR LOC RWY 01R
ILS OR LOC RWY 09
ILS OR LOC RWY 19L
ILS OR LOC RWY 19R
ILS OR LOC RWY 27
ILS RWY 01R (SA CAT I)
ILS RWY 19R (SA CAT I)
ILS RWY 01R (CAT II - III)
ILS RWY 19R (CAT II - III)
RNAV (RNP) Z RWY 01L
RNAV (RNP) Z RWY 01R
RNAV (RNP) Z RWY 09
RNAV (RNP) Z RWY 19L
RNAV (RNP) Z RWY 19R
RNAV (RNP) Z RWY 27
RNAV (GPS) Y RWY 01L
RNAV (GPS) Y RWY 01R
RNAV (GPS) Y RWY 09
RNAV (GPS) Y RWY 19L
RNAV (GPS) Y RWY 19R
RNAV (GPS) Y RWY 27